www.pogodaiklimat.ru

Погода и климат >> Архив погоды >> Антарктида >> Limbert Aws


ПОГОДА в Limbert Aws

  • Прогноз погоды в Limbert Aws
  • Монитор погоды в Limbert Aws
  • Климат города

АРХИВ ПОГОДЫ в Limbert Aws

Время (UTC), дата Ветер
(напр.,м/с)
 
Видим.   Явления Облачность Т
(С)
Тd
(С)
f
(%)
Тe
(С)
Тes
(С)
Комфортность P
(гПа)
Po
(гПа)
Тmin
(С)
Tmax
(С)
R
(мм)
R24
(мм)
S
(см)
18 17.09 ЮЗ 11 н/о н/о -28.6 -31.9 73 -45 -45 опасность
обморожения
991.0 983.3
21 17.09 ЮЗ 8 н/о н/о -30.5 -34.2 70 -46 -46 опасность
обморожения
991.0 983.2
00 18.09 ЮЗ 6 н/о н/о -33.7 -37.6 68 -48 -48 опасность
обморожения
990.9 983.0
03 18.09 ЮЗ 6 н/о н/о -35.0 -39.1 66 -50 -50 опасность
обморожения
990.0 982.1
06 18.09 З 5 н/о н/о -36.4 -40.7 64 -51 -51 опасность
обморожения
989.2 981.3
09 18.09 З 6 н/о н/о -39.2 -43.5 63 -55 -55 опасность
обморожения
988.5 980.5
12 18.09 З 6 н/о н/о -38.2 -42.6 63 -54 -54 опасность
обморожения
988.1 980.1
15 18.09 ЮЗ 7 н/о н/о -36.2 -40.6 64 -53 -53 опасность
обморожения
987.8 979.9
18 18.09 ЮЗ 7 н/о н/о -35.2 -39.5 65 -51 -51 опасность
обморожения
988.5 980.6
21 18.09 З 4 н/о н/о -38.1 -42.4 64 -51 -51 опасность
обморожения
990.2 982.2
00 19.09 ЮЗ 5 н/о н/о -38.8 -43.0 64 -54 -54 опасность
обморожения
991.3 983.3
03 19.09 ЮЗ 6 н/о н/о -37.3 -41.6 64 -52 -52 опасность
обморожения
992.4 984.4
06 19.09 З 5 н/о н/о -38.5 -43.1 62 -53 -53 опасность
обморожения
994.8 986.8
09 19.09 ЮЗ 5 н/о н/о -36.1 -40.6 63 -50 -50 опасность
обморожения
996.4 988.4
12 19.09 З 2 н/о н/о -33.2 -37.5 65 -40 -40 опасность
обморожения
997.4 989.5
15 19.09 штиль 0 н/о н/о -29.8 -33.6 69 -30 -30 998.3 990.5
18 19.09 штиль 0 н/о н/о -26.4 -29.8 73 -26 -26 998.1 990.4
21 19.09 штиль 0 н/о н/о -25.1 -27.6 80 -25 -25 997.6 990.0
00 20.09 В 5 н/о н/о -21.9 -24.4 80 -33 -33 опасность
обморожения
997.5 990.0
03 20.09 В 4 н/о н/о -21.0 -23.4 81 -30 -30 998.1 990.6
06 20.09 штиль 0 н/о н/о -22.6 -24.9 81 -23 -23 1001.0 993.4
09 20.09 З 2 н/о н/о -26.4 -29.0 79 -33 -33 опасность
обморожения
1003.7 996.0
12 20.09 З 3 н/о н/о -23.8 -26.4 79 -32 -32 опасность
обморожения
1006.1 998.4
15 20.09 З 3 н/о н/о -21.6 -24.0 81 -29 -29 1007.4 999.8
18 20.09 штиль 0 н/о н/о -21.8 -24.4 79 -22 -22 1008.8 1001.2
21 20.09 штиль 0 н/о н/о -24.2 -27.0 78 -24 -24 1008.8 1001.1
00 21.09 штиль 0 н/о н/о -24.0 -26.9 77 -24 -24 1009.1 1001.4
03 21.09 штиль 0 н/о н/о -24.9 -27.6 78 -25 -25 1007.8 1000.1
06 21.09 штиль 0 н/о н/о -23.4 -25.8 81 -23 -23 1006.1 998.5
09 21.09 С 4 н/о н/о -20.8 -22.9 83 -29 -29 1004.3 996.7
12 21.09 СВ 3 н/о н/о -18.9 -21.0 83 -26 -26 1002.3 994.8
15 21.09 СВ 5 н/о н/о -18.1 -20.2 84 -27 -27 1000.3 992.9
18 21.09 СВ 3 н/о н/о -18.9 -21.1 83 -26 -26 997.7 990.2
21 21.09 СЗ 2 н/о н/о -22.1 -24.6 80 -27 -27 996.0 988.5
00 22.09 ЮЗ 4 н/о н/о -23.6 -26.0 81 -34 -34 опасность
обморожения
996.3 988.7
03 22.09 З 1 н/о н/о -18.7 -20.8 83 -22 -22 997.6 990.2
06 22.09 ЮЗ 4 н/о н/о -26.9 -29.8 76 -37 -37 опасность
обморожения
999.6 991.9
09 22.09 ЮЗ 4 н/о н/о -31.7 -35.1 72 -43 -43 опасность
обморожения
1000.4 992.5
12 22.09 СЗ 2 н/о н/о -32.8 -36.6 69 -39 -39 опасность
обморожения
1001.3 993.4
15 22.09 ЮЗ 3 н/о н/о -31.7 -35.4 70 -41 -41 опасность
обморожения
1000.9 993.0
18 22.09 н/о н/о -28.5 -32.0 72 1000.7 992.9
21 22.09 н/о н/о -32.5 -36.5 67 1001.0 993.1
00 23.09 С 3 н/о н/о -39.7 -43.9 64 -50 -50 опасность
обморожения
1000.2 992.1
03 23.09 С 4 н/о н/о -38.7 -43.0 64 -51 -51 опасность
обморожения
998.4 990.3
06 23.09 СЗ 3 н/о н/о -31.2 -34.6 72 -40 -40 опасность
обморожения
996.6 988.8
09 23.09 З 2 н/о н/о -34.0 -37.7 69 -42 -42 опасность
обморожения
996.2 988.3
12 23.09 СЗ 2 н/о н/о -34.5 -38.5 67 -41 -41 опасность
обморожения
996.5 988.6
15 23.09 З 2 н/о н/о -31.4 -35.2 69 -38 -38 опасность
обморожения
996.9 989.1
18 23.09 ЮЗ 3 н/о н/о -32.1 -36.1 67 -41 -41 опасность
обморожения
997.6 989.7
21 23.09 СЗ 2 н/о н/о -36.3 -40.6 64 -43 -43 опасность
обморожения
999.1 991.1
00 24.09 ЮЗ 2 н/о н/о -38.4 -42.6 64 -47 -47 опасность
обморожения
1000.8 992.7
03 24.09 З 2 н/о н/о -40.9 -45.4 62 -49 -49 опасность
обморожения
1002.1 993.9
06 24.09 ЮЗ 2 н/о н/о -40.1 -44.5 63 -49 -49 опасность
обморожения
1003.2 995.0
09 24.09 ЮЗ 2 н/о н/о -42.5 -47.1 60 -52 -52 опасность
обморожения
1006.2 997.9
12 24.09 З 2 н/о н/о -40.2 -44.8 61 -50 -50 опасность
обморожения
1007.2 999.0

 

Местоположение метеостанции Limbert Aws (Антарктида): широта -75.87 долгота -59.15 высота над уровнем моря 59 м.

В архиве по умолчанию представлена погода в Limbert Aws за последнюю неделю. Архивные данные за месяц целиком и за предыдущие месяцы, начиная с января 2011 года, Вы можете получить, выбрав интересующий диапазон дат из раскрывающегося списка и нажав кнопку "Ввод!".


*Определитесь, кто Вы:
робот инопланетянин человек

Внимание! Время в таблицах - всемирное. Для получения местного времени необходимо прибавить поправку, которая в Limbert Aws равна 0 ч.

Смотрите также архив погоды в соседних городах и на ближайших метеорологических станциях:

Погода в Sky Blue (Антарктида) (367 км)
Погода в Butler Island (Антарктида) (409 км)
Погода в Fossil Bluff (Антарктида) (580 км)
Погода в Base Belgrano Ii (Антарктида) (653 км)
Погода в Halley (Антарктида) (883 км)
Погода в San Martin Base (Антарктида) (904 км)
Погода в Rothera (Антарктида) (973 км)
Погода в Larsen Ice Shelf (Антарктида) (989 км)
Погода в Vernadsky (Антарктида) (1195 км)
Погода в Palmer Station (Антарктида) (1248 км)

Пояснения к столбцам:

Ветер - указаны скорость ветра в м/с - средняя за 10 мин, порывы в срок и между сроками (в фигурных скобках) и направление, откуда дует ветер: С - северный, СВ - северо-восточный, В - восточный, ЮВ - юго-восточный, Ю - южный, ЮЗ - юго-западный, З - западный, СЗ - северо-западный.
Видимость - горизонтальная дальность видимости в метрах или километрах. При видимости от 1 до 10 км при отсутствии осадков обычно наблюдается дымка, при ухудшении видимости до 1 км и менее - туман. В сухую погоду видимость может ухудшаться дымом, пылью или мглою.
Явления - указаны атмосферные явления, наблюдавшиеся в срок или в последний час перед сроком; фигурными скобками обозначены явления, наблюдавшиеся между сроками (за 1-3 часа до срока); квадратными скобками обозначены град или гололедные отложения с указанием их диаметра в мм.
Облачность - указаны через наклонную черту общая и нижняя облачность в баллах и высота нижней границы облаков в метрах; квадратными скобками обозначены формы облаков: Ci - перистые, Cs - перисто-слоистые, Cc - перисто-кучевые, Ac - высококучевые, As - высокослоистые, Sc - слоисто-кучевые, Ns - слоисто-дождевые, Cu - кучевые, Cb - кучево-дождевые. Подробнее классификацию облаков см. в Атласе облаков (PDF).
T - Температура воздуха - температура, измеренная на высоте 2 м над землей.
Td - Температура точки росы - температура, при понижении до которой содержащийся в воздухе водяной пар достигнет насыщения.
f - Относительная влажность воздуха - влажноcть воздуха, измеренная на высоте 2 м над землей.
Te - Эффективная температура - температура, которую ощущает одетый по сезону человек в тени. Характеристика душности погоды. При расчете учитывается влияние влажности воздуха и скорости ветра на теплоощущения человека.
Tes - Эффективная температура на солнце - температура, которую ощущает человек, с поправкой на солнечный нагрев. Характеристика знойности погоды. Зависит от высоты солнца над горизонтом, облачности и скорости ветра. Ночью, в пасмурную погоду, а также при ветре 12 м/с и более поправка равна нулю.
P - Атмосферное давление - приведенное к уровню моря атмосферное давление.
Po - Атмосферное давление - измеренное на уровне метеостанции атмосферное давление.
Tmin - Минимальная температура - минимум температуры воздуха на высоте 2 м над землей.
Tmax - Максимальная температура - максимум температуры воздуха на высоте 2 м над землей.
R - Количество осадков - Количество выпавших осадков за период времени, мм. При наведении курсора мыши на число - период времени, за который выпало указанное количество осадков.
R24 - Количество осадков - Количество выпавших осадков за 24 часа, мм.
S - Снежный покров - Высота снежного покрова, см. При наведении курсора мыши на число - состояние снежного покрова и степень покрытия местности в баллах.